Location: ????????
(55.3155°N, 39.2900°E)
Time: 18:39:01
(UTC+00:00)

ACS3 Solar Sail - Pass Details

Date: 20 November 2025
Orbit: 889 x 1003 km, 97.3° (Epoch: 06 December)

Event Time Altitude Azimuth Distance (km) Brightness Sun altitude
Rises 01:54:55 0° 11° (N) 3,569 4.9 -26.5°
Reaches altitude 10° 01:57:26 10° 5° (N) 2,639 4.1 -26.1°
Enters shadow 02:01:20 35° 333° (NNW) 1,471 2.5 -25.6°
